BAW47M EGJJ-LIMJ

Flight info

Callsign BAW47M
Flight time 1h 35m
Altitude 35000
Route CAN UN160 PIGOP UN491 RESMI DCT PEKIM DCT MOKIP DCT MILPA DCT PAS DCT VANAS DCT TOP DCT TESTO
Aircraft A20N/M-SDE2E3FGHIRWXY/LB1

Departure

Time 2026-04-21 18:05
Airport Jersey Airport (EGJJ)

Arrival

Time 2026-04-21 19:40
Airport Genoa Cristoforo Colombo Airport (LIMJ)
Time Latitude Longitude Altitude Speed Heading
2026-04-21 17:31 49.20483 -2.19618 271 ft 0 kts 15°
2026-04-21 17:50 49.20480 -2.19619 271 ft 2 kts 15°
2026-04-21 17:50 49.20465 -2.19621 271 ft 2 kts 352°
2026-04-21 17:50 49.20450 -2.19616 270 ft 2 kts 334°
2026-04-21 17:51 49.20433 -2.19598 270 ft 2 kts 311°
2026-04-21 17:51 49.20427 -2.19586 270 ft 2 kts 300°
2026-04-21 17:51 49.20421 -2.19565 270 ft 2 kts 283°
2026-04-21 17:51 49.20416 -2.19536 270 ft 2 kts 286°
2026-04-21 17:52 49.20414 -2.19525 270 ft 0 kts 285°
2026-04-21 17:59 49.20417 -2.19542 270 ft 3 kts 286°
2026-04-21 17:59 49.20430 -2.19607 270 ft 8 kts 286°
2026-04-21 17:59 49.20440 -2.19709 270 ft 10 kts 266°
2026-04-21 17:59 49.20435 -2.19889 267 ft 14 kts 301°
2026-04-21 18:00 49.20493 -2.19929 268 ft 13 kts 323°
2026-04-21 18:00 49.20528 -2.20059 268 ft 14 kts 287°
2026-04-21 18:00 49.20558 -2.20204 267 ft 15 kts 287°
2026-04-21 18:00 49.20586 -2.20352 264 ft 0 kts 287°
2026-04-21 18:01 49.20593 -2.20384 263 ft 7 kts 288°
2026-04-21 18:01 49.20608 -2.20462 260 ft 8 kts 286°
2026-04-21 18:01 49.20616 -2.20507 257 ft 0 kts 285°
2026-04-21 18:02 49.20617 -2.20516 257 ft 4 kts 284°
2026-04-21 18:02 49.20625 -2.20604 252 ft 12 kts 268°
2026-04-21 18:03 49.20683 -2.20698 246 ft 14 kts 28°
2026-04-21 18:03 49.20703 -2.20649 250 ft 0 kts 81°
2026-04-21 18:04 49.20703 -2.20648 250 ft 3 kts 81°
2026-04-21 18:04 49.20733 -2.20296 266 ft 66 kts 82°
2026-04-21 18:04 49.20817 -2.19288 275 ft 123 kts 82°
2026-04-21 18:04 49.20923 -2.17880 682 ft 135 kts 82°
2026-04-21 18:05 49.21036 -2.16439 1285 ft 137 kts 83°
2026-04-21 18:05 49.21167 -2.15040 1921 ft 135 kts 84°
2026-04-21 18:05 49.21324 -2.13586 2293 ft 145 kts 83°
2026-04-21 18:05 49.21455 -2.11996 2732 ft 159 kts 84°
2026-04-21 18:06 49.21604 -2.10218 3177 ft 175 kts 84°
2026-04-21 18:06 49.21758 -2.08325 3662 ft 191 kts 84°
2026-04-21 18:06 49.21932 -2.06189 4124 ft 210 kts 85°
2026-04-21 18:06 49.22026 -2.03889 4628 ft 228 kts 89°
2026-04-21 18:07 49.22002 -2.01395 4938 ft 239 kts 91°
2026-04-21 18:07 49.21947 -1.98838 4989 ft 242 kts 91°
2026-04-21 18:07 49.21882 -1.96240 5383 ft 250 kts 91°
2026-04-21 18:07 49.21791 -1.92713 6580 ft 252 kts 91°
2026-04-21 18:08 49.21746 -1.90874 7093 ft 257 kts 91°
2026-04-21 18:08 49.21678 -1.88135 7839 ft 263 kts 91°
2026-04-21 18:08 49.21609 -1.85316 8577 ft 270 kts 91°
2026-04-21 18:08 49.21537 -1.82476 9293 ft 275 kts 91°
2026-04-21 18:09 49.21463 -1.79531 9995 ft 282 kts 90°
2026-04-21 18:09 49.21387 -1.76520 10616 ft 291 kts 90°
2026-04-21 18:09 49.21306 -1.73335 10989 ft 308 kts 90°
2026-04-21 18:09 49.21219 -1.69965 11324 ft 326 kts 90°
2026-04-21 18:10 49.21127 -1.66433 11637 ft 344 kts 90°
2026-04-21 18:10 49.21029 -1.62728 12072 ft 356 kts 90°
2026-04-21 18:10 49.20927 -1.58917 12696 ft 361 kts 90°
2026-04-21 18:10 49.20820 -1.55039 13314 ft 367 kts 90°
2026-04-21 18:11 49.20713 -1.51162 13895 ft 373 kts 90°
2026-04-21 18:11 49.20600 -1.47162 14490 ft 378 kts 90°
2026-04-21 18:11 49.20484 -1.43138 15088 ft 383 kts 90°
2026-04-21 18:11 49.20366 -1.39085 15698 ft 387 kts 90°
2026-04-21 18:12 49.20247 -1.34976 16280 ft 391 kts 90°
2026-04-21 18:12 49.20124 -1.30763 16849 ft 396 kts 90°
2026-04-21 18:12 49.19999 -1.26557 17399 ft 400 kts 90°
2026-04-21 18:12 49.19870 -1.22263 17943 ft 404 kts 89°
2026-04-21 18:13 49.19740 -1.17959 18466 ft 409 kts 89°
2026-04-21 18:13 49.19608 -1.13598 18976 ft 413 kts 89°
2026-04-21 18:13 49.19473 -1.09206 19496 ft 417 kts 89°
2026-04-21 18:13 49.19334 -1.04768 19978 ft 422 kts 89°
2026-04-21 18:14 49.19047 -0.95792 20959 ft 430 kts 89°
2026-04-21 18:14 49.18898 -0.91219 21428 ft 434 kts 89°
2026-04-21 18:14 49.18745 -0.86592 21896 ft 437 kts 89°
2026-04-21 18:15 49.18590 -0.81950 22340 ft 441 kts 90°
2026-04-21 18:15 49.18432 -0.77251 22796 ft 445 kts 90°
2026-04-21 18:15 49.18269 -0.72545 23352 ft 445 kts 89°
2026-04-21 18:15 49.18051 -0.66248 23969 ft 449 kts 89°
2026-04-21 18:16 49.17938 -0.63020 24259 ft 451 kts 89°
2026-04-21 18:16 49.17767 -0.58230 24710 ft 454 kts 89°
2026-04-21 18:16 49.17593 -0.53400 25133 ft 458 kts 89°
2026-04-21 18:16 49.17307 -0.48513 25530 ft 463 kts 95°
2026-04-21 18:17 49.16645 -0.43665 25918 ft 469 kts 103°
2026-04-21 18:17 49.15601 -0.38991 26336 ft 473 kts 109°
2026-04-21 18:17 49.14330 -0.34308 26723 ft 476 kts 112°
2026-04-21 18:17 49.13010 -0.29629 27042 ft 480 kts 112°
2026-04-21 18:18 49.11674 -0.24854 27410 ft 483 kts 111°
2026-04-21 18:18 49.10388 -0.20129 27867 ft 482 kts 111°
2026-04-21 18:18 49.09128 -0.15424 28372 ft 481 kts 111°
2026-04-21 18:18 49.07886 -0.10769 28871 ft 480 kts 111°
2026-04-21 18:19 49.06630 -0.06065 29316 ft 480 kts 111°
2026-04-21 18:19 49.05357 -0.01329 29760 ft 480 kts 111°
2026-04-21 18:19 49.04102 0.03341 30208 ft 479 kts 111°
2026-04-21 18:19 49.02836 0.08034 30640 ft 479 kts 111°
2026-04-21 18:20 49.01549 0.12791 31039 ft 479 kts 111°
2026-04-21 18:20 49.00299 0.17421 31416 ft 479 kts 111°
2026-04-21 18:20 48.99026 0.22115 31797 ft 479 kts 111°
2026-04-21 18:20 48.97739 0.26846 32191 ft 478 kts 111°
2026-04-21 18:21 48.96475 0.31487 32556 ft 478 kts 111°
2026-04-21 18:21 48.95196 0.36167 32894 ft 478 kts 111°
2026-04-21 18:21 48.93926 0.40805 33217 ft 478 kts 111°
2026-04-21 18:21 48.92653 0.45451 33511 ft 479 kts 112°
2026-04-21 18:22 48.91373 0.50106 33775 ft 479 kts 112°
2026-04-21 18:22 48.90081 0.54797 34016 ft 481 kts 111°
2026-04-21 18:22 48.88779 0.59523 34232 ft 482 kts 111°
2026-04-21 18:22 48.87491 0.64184 34456 ft 483 kts 111°
2026-04-21 18:23 48.86169 0.68966 34662 ft 485 kts 112°
2026-04-21 18:23 48.84868 0.73684 34851 ft 486 kts 112°
2026-04-21 18:23 48.83579 0.78470 35006 ft 487 kts 112°
2026-04-21 18:24 48.81040 0.87960 35089 ft 489 kts 112°
2026-04-21 18:24 48.78473 0.97495 35090 ft 489 kts 111°
2026-04-21 18:25 48.75885 1.07059 35087 ft 490 kts 111°
2026-04-21 18:25 48.73298 1.16590 35097 ft 490 kts 111°
2026-04-21 18:26 48.70706 1.26072 35090 ft 490 kts 111°
2026-04-21 18:26 48.68423 1.35757 35085 ft 489 kts 104°
2026-04-21 18:27 48.66913 1.45758 35095 ft 488 kts 98°
2026-04-21 18:27 48.65623 1.55767 35092 ft 488 kts 98°
2026-04-21 18:28 48.64280 1.65801 35089 ft 488 kts 99°
2026-04-21 18:28 48.62899 1.75868 35086 ft 489 kts 99°
2026-04-21 18:29 48.61512 1.85886 35092 ft 489 kts 99°
2026-04-21 18:29 48.60118 1.95932 35092 ft 490 kts 99°
2026-04-21 18:30 48.58704 2.06010 35100 ft 490 kts 100°
2026-04-21 18:30 48.56782 2.15918 35098 ft 493 kts 109°
2026-04-21 18:31 48.53891 2.25277 35105 ft 495 kts 119°
2026-04-21 18:31 48.50131 2.33973 35096 ft 495 kts 125°
2026-04-21 18:32 48.46151 2.42489 35094 ft 495 kts 124°
2026-04-21 18:32 48.42232 2.50942 35092 ft 496 kts 124°
2026-04-21 18:33 48.38297 2.59456 35082 ft 496 kts 124°
2026-04-21 18:33 48.34361 2.67964 35080 ft 495 kts 125°
2026-04-21 18:34 48.30386 2.76459 35072 ft 495 kts 127°
2026-04-21 18:34 48.25972 2.84318 35071 ft 495 kts 136°
2026-04-21 18:35 48.20873 2.91335 35078 ft 496 kts 141°
2026-04-21 18:35 48.15669 2.97993 35067 ft 496 kts 141°
2026-04-21 18:36 48.10403 3.04750 35066 ft 497 kts 141°
2026-04-21 18:36 48.05165 3.11491 35055 ft 497 kts 141°
2026-04-21 18:37 47.99915 3.18228 35054 ft 497 kts 141°
2026-04-21 18:37 47.94672 3.24946 35053 ft 496 kts 141°
2026-04-21 18:38 47.89433 3.31641 35044 ft 495 kts 141°
2026-04-21 18:38 47.84155 3.38364 35043 ft 495 kts 141°
2026-04-21 18:39 47.78916 3.45021 35038 ft 495 kts 141°
2026-04-21 18:39 47.73671 3.51662 35030 ft 496 kts 141°
2026-04-21 18:40 47.68428 3.58285 35030 ft 495 kts 141°
2026-04-21 18:40 47.63260 3.65048 35030 ft 496 kts 137°
2026-04-21 18:41 47.58442 3.72359 35033 ft 497 kts 135°
2026-04-21 18:41 47.53629 3.79724 35025 ft 497 kts 136°
2026-04-21 18:42 47.48780 3.87038 35029 ft 497 kts 136°
2026-04-21 18:42 47.43964 3.94255 35030 ft 497 kts 136°
2026-04-21 18:43 47.39093 4.01518 35024 ft 496 kts 136°
2026-04-21 18:43 47.34252 4.08717 35018 ft 495 kts 136°
2026-04-21 18:44 47.29395 4.15917 35016 ft 496 kts 136°
2026-04-21 18:44 47.24524 4.23118 35013 ft 496 kts 136°
2026-04-21 18:45 47.19671 4.30282 35017 ft 496 kts 136°
2026-04-21 18:45 47.14778 4.37474 35015 ft 497 kts 136°
2026-04-21 18:46 47.09870 4.44672 35016 ft 498 kts 136°
2026-04-21 18:46 47.04985 4.51812 35016 ft 498 kts 136°
2026-04-21 18:47 47.00064 4.58995 35015 ft 499 kts 136°
2026-04-21 18:47 46.95134 4.66167 35010 ft 499 kts 137°
2026-04-21 18:48 46.90197 4.73327 35014 ft 498 kts 137°
2026-04-21 18:48 46.85220 4.80524 35006 ft 498 kts 136°
2026-04-21 18:49 46.80293 4.87634 35002 ft 499 kts 137°
2026-04-21 18:49 46.76161 4.93581 34998 ft 498 kts 136°
2026-04-21 18:50 46.70372 5.01884 34993 ft 499 kts 136°
2026-04-21 18:50 46.65418 5.08979 34991 ft 499 kts 137°
2026-04-21 18:51 46.60469 5.16041 34983 ft 498 kts 137°
2026-04-21 18:51 46.55524 5.23077 34982 ft 499 kts 137°
2026-04-21 18:52 46.50542 5.30145 34980 ft 499 kts 137°
2026-04-21 18:52 46.45566 5.37188 34980 ft 499 kts 137°
2026-04-21 18:53 46.40576 5.44232 34976 ft 498 kts 137°
2026-04-21 18:53 46.35587 5.51258 34971 ft 498 kts 137°
2026-04-21 18:54 46.30627 5.58224 34969 ft 498 kts 137°
2026-04-21 18:54 46.25644 5.65196 34965 ft 498 kts 138°
2026-04-21 18:55 46.20638 5.72187 34968 ft 499 kts 138°
2026-04-21 18:55 46.15637 5.79154 34968 ft 500 kts 138°
2026-04-21 18:56 46.10648 5.86088 34964 ft 500 kts 138°
2026-04-21 18:56 46.05659 5.93000 34963 ft 500 kts 138°
2026-04-21 18:57 46.00616 5.99967 34964 ft 502 kts 138°
2026-04-21 18:57 45.95597 6.06886 34972 ft 500 kts 138°
2026-04-21 18:58 45.90571 6.13793 34975 ft 501 kts 138°
2026-04-21 18:58 45.85519 6.20721 34975 ft 500 kts 138°
2026-04-21 18:59 45.80483 6.27604 34974 ft 500 kts 138°
2026-04-21 18:59 45.75420 6.34507 34981 ft 500 kts 138°
2026-04-21 19:00 45.70390 6.41351 34988 ft 501 kts 138°
2026-04-21 19:00 45.65322 6.48233 34992 ft 499 kts 138°
2026-04-21 19:01 45.60266 6.55073 34997 ft 500 kts 138°
2026-04-21 19:01 45.55231 6.61866 34996 ft 500 kts 137°
2026-04-21 19:02 45.50139 6.68730 34979 ft 500 kts 139°
2026-04-21 19:02 45.45370 6.75906 34973 ft 501 kts 130°
2026-04-21 19:03 45.41256 6.83951 34975 ft 501 kts 123°
2026-04-21 19:03 45.37429 6.92200 34969 ft 501 kts 123°
2026-04-21 19:04 45.33583 7.00426 34966 ft 495 kts 123°
2026-04-21 19:04 45.31688 7.04450 34962 ft 479 kts 123°
2026-04-21 19:04 45.29864 7.08311 34962 ft 468 kts 123°
2026-04-21 19:05 45.26240 7.15973 34960 ft 467 kts 124°
2026-04-21 19:05 45.22615 7.23603 34951 ft 467 kts 123°
2026-04-21 19:06 45.18995 7.31203 34951 ft 465 kts 123°
2026-04-21 19:06 45.17187 7.34989 34791 ft 461 kts 124°
2026-04-21 19:06 45.15403 7.38729 34380 ft 459 kts 124°
2026-04-21 19:06 45.13614 7.42462 33902 ft 458 kts 124°
2026-04-21 19:07 45.11850 7.46139 33473 ft 456 kts 123°
2026-04-21 19:07 45.10067 7.49859 33077 ft 452 kts 123°
2026-04-21 19:07 45.08325 7.53486 32718 ft 448 kts 123°
2026-04-21 19:07 45.06565 7.57151 32372 ft 444 kts 123°
2026-04-21 19:08 45.04825 7.60766 31980 ft 441 kts 123°
2026-04-21 19:08 45.03115 7.64304 31588 ft 438 kts 123°
2026-04-21 19:08 45.01392 7.67878 31193 ft 435 kts 124°
2026-04-21 19:08 44.99716 7.71454 30796 ft 431 kts 119°
2026-04-21 19:09 44.98318 7.75147 30404 ft 428 kts 114°
2026-04-21 19:09 44.97032 7.78871 29999 ft 425 kts 114°
2026-04-21 19:09 44.95754 7.82647 29586 ft 422 kts 114°
2026-04-21 19:09 44.94500 7.86368 29181 ft 419 kts 114°
2026-04-21 19:10 44.93258 7.90047 28768 ft 414 kts 113°
2026-04-21 19:10 44.92039 7.93674 28365 ft 411 kts 113°
2026-04-21 19:10 44.90817 7.97304 27957 ft 408 kts 113°
2026-04-21 19:10 44.89594 8.00941 27543 ft 406 kts 114°
2026-04-21 19:11 44.88402 8.04494 27144 ft 403 kts 114°
2026-04-21 19:11 44.87212 8.08056 26743 ft 400 kts 113°
2026-04-21 19:11 44.86023 8.11596 26336 ft 397 kts 114°
2026-04-21 19:11 44.84857 8.15087 25934 ft 394 kts 113°
2026-04-21 19:12 44.83699 8.18570 25533 ft 392 kts 113°
2026-04-21 19:12 44.82551 8.22015 25132 ft 390 kts 113°
2026-04-21 19:12 44.81404 8.25452 24729 ft 387 kts 113°
2026-04-21 19:12 44.80253 8.28910 24323 ft 385 kts 114°
2026-04-21 19:13 44.79131 8.32287 23926 ft 383 kts 113°
2026-04-21 19:13 44.77976 8.35645 23524 ft 382 kts 120°
2026-04-21 19:13 44.76447 8.38645 23139 ft 379 kts 131°
2026-04-21 19:13 44.74699 8.41444 22747 ft 377 kts 133°
2026-04-21 19:14 44.72969 8.44168 22366 ft 376 kts 132°
2026-04-21 19:14 44.71260 8.46946 21982 ft 374 kts 131°
2026-04-21 19:14 44.69583 8.49755 21599 ft 373 kts 130°
2026-04-21 19:14 44.67950 8.52545 21213 ft 371 kts 130°
2026-04-21 19:15 44.66331 8.55337 20827 ft 368 kts 130°
2026-04-21 19:15 44.64724 8.58108 20445 ft 364 kts 129°
2026-04-21 19:15 44.63137 8.60839 20056 ft 362 kts 130°
2026-04-21 19:15 44.61529 8.63605 19667 ft 360 kts 129°
2026-04-21 19:16 44.59996 8.66392 19284 ft 359 kts 127°
2026-04-21 19:16 44.58593 8.69278 18896 ft 357 kts 122°
2026-04-21 19:16 44.57332 8.72239 18515 ft 355 kts 120°
2026-04-21 19:16 44.56103 8.75241 18127 ft 354 kts 119°
2026-04-21 19:17 44.53683 8.81168 17372 ft 350 kts 120°
2026-04-21 19:17 44.52457 8.84136 16985 ft 348 kts 120°
2026-04-21 19:17 44.51256 8.87037 16691 ft 344 kts 120°
2026-04-21 19:18 44.50066 8.89911 16527 ft 335 kts 120°
2026-04-21 19:18 44.48915 8.92678 16367 ft 326 kts 120°
2026-04-21 19:18 44.47778 8.95411 16202 ft 318 kts 120°
2026-04-21 19:18 44.46678 8.98054 15918 ft 314 kts 120°
2026-04-21 19:19 44.45583 9.00682 15612 ft 311 kts 120°
2026-04-21 19:19 44.44487 9.03311 15310 ft 309 kts 120°
2026-04-21 19:19 44.43325 9.05783 15000 ft 305 kts 135°
2026-04-21 19:19 44.41639 9.07469 14923 ft 295 kts 163°
2026-04-21 19:20 44.39677 9.08038 14910 ft 286 kts 187°
2026-04-21 19:20 44.37684 9.07801 14918 ft 284 kts 193°
2026-04-21 19:20 44.35738 9.07452 14907 ft 283 kts 193°
2026-04-21 19:20 44.33778 9.07143 14759 ft 281 kts 191°
2026-04-21 19:21 44.31832 9.06853 14407 ft 281 kts 193°
2026-04-21 19:21 44.29916 9.06508 14053 ft 280 kts 193°
2026-04-21 19:21 44.27990 9.06142 13737 ft 278 kts 193°
2026-04-21 19:21 44.26076 9.05767 13428 ft 276 kts 193°
2026-04-21 19:22 44.24179 9.05385 13079 ft 275 kts 193°
2026-04-21 19:22 44.22291 9.04995 12769 ft 273 kts 193°
2026-04-21 19:22 44.20406 9.04588 12485 ft 271 kts 193°
2026-04-21 19:22 44.18566 9.04179 12186 ft 269 kts 193°
2026-04-21 19:23 44.16721 9.03763 11927 ft 265 kts 193°
2026-04-21 19:23 44.14914 9.03353 11898 ft 266 kts 193°
2026-04-21 19:23 44.13080 9.02934 11888 ft 267 kts 193°
2026-04-21 19:23 44.11253 9.02521 11889 ft 268 kts 193°
2026-04-21 19:24 44.09390 9.02097 11888 ft 268 kts 193°
2026-04-21 19:24 44.07565 9.01678 11887 ft 268 kts 193°
2026-04-21 19:24 44.05715 9.01250 11874 ft 268 kts 193°
2026-04-21 19:24 44.03879 9.00822 11875 ft 269 kts 193°
2026-04-21 19:25 44.02036 9.00399 11878 ft 269 kts 193°
2026-04-21 19:25 44.00183 8.99972 11879 ft 268 kts 193°
2026-04-21 19:25 43.98337 8.99821 11716 ft 270 kts 171°
2026-04-21 19:25 43.96652 9.00966 11326 ft 276 kts 135°
2026-04-21 19:26 43.95712 9.03228 10978 ft 274 kts 99°
2026-04-21 19:26 43.95754 9.05821 10677 ft 266 kts 71°
2026-04-21 19:26 43.96576 9.08041 10375 ft 258 kts 46°
2026-04-21 19:26 43.97784 9.09852 10066 ft 255 kts 44°
2026-04-21 19:27 43.98999 9.11645 9746 ft 254 kts 45°
2026-04-21 19:27 44.00177 9.13449 9487 ft 251 kts 46°
2026-04-21 19:27 44.01313 9.15241 9293 ft 245 kts 46°
2026-04-21 19:27 44.02414 9.17005 9014 ft 243 kts 47°
2026-04-21 19:28 44.03515 9.18781 8726 ft 242 kts 47°
2026-04-21 19:28 44.04598 9.20542 8426 ft 240 kts 48°
2026-04-21 19:28 44.05682 9.22310 8171 ft 237 kts 48°
2026-04-21 19:28 44.06738 9.24034 8030 ft 229 kts 48°
2026-04-21 19:29 44.07746 9.25684 7869 ft 222 kts 48°
2026-04-21 19:29 44.08721 9.27276 7694 ft 215 kts 49°
2026-04-21 19:29 44.09643 9.28904 7433 ft 213 kts 51°
2026-04-21 19:29 44.10543 9.30547 7156 ft 212 kts 51°
2026-04-21 19:30 44.11428 9.32169 6887 ft 210 kts 51°
2026-04-21 19:30 44.12305 9.33773 6625 ft 208 kts 52°
2026-04-21 19:30 44.13186 9.35384 6346 ft 207 kts 51°
2026-04-21 19:30 44.14217 9.36759 6048 ft 205 kts 25°
2026-04-21 19:31 44.15579 9.37193 5923 ft 204 kts 356°
2026-04-21 19:31 44.16920 9.36666 5746 ft 203 kts 329°
2026-04-21 19:31 44.18073 9.35515 5430 ft 205 kts 323°
2026-04-21 19:31 44.19202 9.34281 5118 ft 206 kts 323°
2026-04-21 19:32 44.20330 9.33054 4827 ft 206 kts 323°
2026-04-21 19:32 44.21476 9.31823 4549 ft 205 kts 324°
2026-04-21 19:32 44.22609 9.30618 4471 ft 205 kts 324°
2026-04-21 19:32 44.23762 9.29400 4468 ft 206 kts 324°
2026-04-21 19:33 44.24891 9.28203 4468 ft 206 kts 324°
2026-04-21 19:33 44.26049 9.26977 4467 ft 206 kts 324°
2026-04-21 19:33 44.27177 9.25780 4467 ft 206 kts 324°
2026-04-21 19:33 44.28327 9.24566 4465 ft 206 kts 325°
2026-04-21 19:34 44.29473 9.23354 4465 ft 204 kts 324°
2026-04-21 19:34 44.30587 9.22174 4452 ft 196 kts 325°
2026-04-21 19:34 44.31667 9.21029 4463 ft 195 kts 325°
2026-04-21 19:34 44.32731 9.19815 4462 ft 197 kts 314°
2026-04-21 19:35 44.33518 9.18259 4470 ft 199 kts 298°
2026-04-21 19:35 44.34552 9.14642 4388 ft 201 kts 290°
2026-04-21 19:35 44.34987 9.12807 4116 ft 200 kts 289°
2026-04-21 19:36 44.35405 9.10941 3844 ft 199 kts 288°
2026-04-21 19:36 44.35807 9.09090 3573 ft 199 kts 289°
2026-04-21 19:36 44.36205 9.07243 3297 ft 200 kts 289°
2026-04-21 19:36 44.36606 9.05385 3021 ft 199 kts 289°
2026-04-21 19:37 44.37003 9.03548 2744 ft 199 kts 288°
2026-04-21 19:37 44.37402 9.01707 2478 ft 194 kts 288°
2026-04-21 19:37 44.37778 8.99977 2204 ft 183 kts 289°
2026-04-21 19:37 44.38144 8.98298 1929 ft 173 kts 288°
2026-04-21 19:38 44.38506 8.96764 1698 ft 158 kts 294°
2026-04-21 19:38 44.38896 8.95362 1542 ft 154 kts 293°
2026-04-21 19:38 44.39210 8.93917 1385 ft 154 kts 288°
2026-04-21 19:38 44.39532 8.92468 1122 ft 155 kts 289°
2026-04-21 19:39 44.39826 8.91042 900 ft 152 kts 287°
2026-04-21 19:39 44.40122 8.89631 649 ft 149 kts 287°
2026-04-21 19:39 44.40391 8.88283 411 ft 142 kts 285°
2026-04-21 19:39 44.40650 8.86934 238 ft 141 kts 285°
2026-04-21 19:40 44.40914 8.85618 59 ft 140 kts 285°
2026-04-21 19:40 44.41158 8.84381 20 ft 116 kts 285°
2026-04-21 19:40 44.41327 8.83521 19 ft 66 kts 285°
2026-04-21 19:40 44.41443 8.83131 19 ft 30 kts 315°
2026-04-21 19:41 44.41508 8.83088 19 ft 4 kts
2026-04-21 19:41 44.41537 8.83110 19 ft 5 kts 48°
2026-04-21 19:41 44.41550 8.83164 19 ft 6 kts 94°
2026-04-21 19:41 44.41537 8.83234 19 ft 8 kts 106°
2026-04-21 19:42 44.41518 8.83331 19 ft 12 kts 105°
2026-04-21 19:42 44.41493 8.83457 19 ft 14 kts 105°
2026-04-21 19:42 44.41467 8.83590 19 ft 13 kts 106°
2026-04-21 19:42 44.41442 8.83715 19 ft 13 kts 105°
2026-04-21 19:43 44.41419 8.83835 19 ft 12 kts 105°
2026-04-21 19:43 44.41397 8.83949 19 ft 12 kts 106°
2026-04-21 19:43 44.41375 8.84061 19 ft 11 kts 105°
2026-04-21 19:43 44.41354 8.84168 19 ft 11 kts 105°
2026-04-21 19:44 44.41333 8.84277 19 ft 12 kts 105°
2026-04-21 19:44 44.41317 8.84393 20 ft 11 kts 79°
2026-04-21 19:44 44.41357 8.84479 22 ft 9 kts 53°
2026-04-21 19:44 44.41401 8.84534 23 ft 7 kts 355°
2026-04-21 19:45 44.41450 8.84487 22 ft 9 kts 323°
2026-04-21 19:45 44.41454 8.84483 22 ft 0 kts 322°